Weather History for Zanesville, OH

Change the Weather History Date:

Tuesday, May 14, 2013

  Actual Average Record
Temperature  
Mean Temperature 52 °F 60 °F  
Max Temperature 71 °F 72 °F 90 °F (1962)
Min Temperature 33 °F 48 °F 29 °F (1996)
Degree Days  
Heating Degree Days 13 6  
Month to date heating degree days 79 106  
Since 1 July heating degree days 5487 5463  
Cooling Degree Days 0 1  
Month to date cooling degree days 3 10  
Year to date cooling degree days 20 19  
Growing Degree Days 2 (Base 50)    
Moisture  
Dew Point 39 °F    
Average Humidity 67    
Maximum Humidity 96    
Minimum Humidity 37    
Precipitation  
Precipitation 0.00 in 0.15 in 1.34 in (1957)
Month to date precipitation 0.76 1.81  
Year to date precipitation 9.94 13.08  
Sea Level Pressure  
Sea Level Pressure 30.03 in    
Wind  
Wind Speed 6 mph (South)    
Max Wind Speed 17 mph    
Max Gust Speed 23 mph    
Visibility 10 miles    
Events      
T = Trace of Precipitation, MM = Missing Value Source: NWS Daily Summary

Daily Weather History Graph

Daily Weather History Graph

Search for Another Location

Airport:

Trip Planner

Search our weather history database for the weather conditions in past years. The results will help you decide how hot, cold, wet, or windy it might be!

Date:

Astronomy

May. 14, 2013 Rise Set
Actual Time 6:13 AM EDT 8:35 PM EDT
Civil Twilight 5:42 AM EDT 9:05 PM EDT
Nautical Twilight 5:04 AM EDT 9:43 PM EDT
Astronomical Twilight 4:23 AM EDT 10:25 PM EDT
Moon 9:51 AM EDT (5/14) No Moon Set
Length of Visible Light 15h 23m
Length of Day
14h 22m
Waxing Crescent, 19% of the Moon is Illuminated
May 14
Waxing Crescent
May 18
First Quarter
May 25
Full
May 31
Last Quarter
Jun 8
New

Hourly Weather History & Observations

Time (EDT) Temp. Windchill Dew Point Humidity Pressure Visibility Wind Dir Wind Speed Gust Speed Precip Events Conditions
12:53 AM 36.0 °F - 32.0 °F 86% 30.18 in 10.0 mi Calm Calm - N/A   Clear
1:53 AM 35.1 °F - 33.1 °F 92% 30.18 in 10.0 mi Calm Calm - N/A   Clear
2:53 AM 34.0 °F - 32.0 °F 92% 30.17 in 10.0 mi Calm Calm - N/A   Clear
3:53 AM 34.0 °F - 30.0 °F 85% 30.16 in 10.0 mi Calm Calm - N/A   Clear
4:53 AM 34.0 °F - 30.9 °F 89% 30.15 in 10.0 mi Calm Calm - N/A   Clear
5:53 AM 33.1 °F - 30.9 °F 92% 30.15 in 10.0 mi Calm Calm - N/A   Clear
6:53 AM 35.1 °F - 33.1 °F 92% 30.17 in 10.0 mi Calm Calm - N/A   Scattered Clouds
7:53 AM 39.9 °F - 35.1 °F 83% 30.17 in 10.0 mi Calm Calm - N/A   Overcast
8:53 AM 42.1 °F 39.2 °F 37.0 °F 82% 30.17 in 10.0 mi Variable 4.6 mph - N/A   Overcast
9:53 AM 45.0 °F 42.6 °F 37.0 °F 74% 30.15 in 10.0 mi South 4.6 mph - N/A   Overcast
10:53 AM 50.0 °F - 37.9 °F 63% 30.10 in 10.0 mi South 10.4 mph - N/A   Overcast
11:53 AM 57.9 °F - 39.0 °F 49% 30.09 in 10.0 mi South 8.1 mph - N/A   Scattered Clouds
12:53 PM 62.1 °F - 37.9 °F 41% 30.05 in 10.0 mi SSW 11.5 mph 18.4 mph N/A   Partly Cloudy
1:53 PM 64.9 °F - 39.0 °F 39% 30.00 in 10.0 mi South 9.2 mph - N/A   Partly Cloudy
2:53 PM 66.9 °F - 39.9 °F 37% 29.98 in 10.0 mi South 11.5 mph - N/A   Mostly Cloudy
3:53 PM 69.1 °F - 42.1 °F 38% 29.95 in 10.0 mi South 13.8 mph 20.7 mph N/A   Clear
4:53 PM 70.0 °F - 44.1 °F 39% 29.91 in 10.0 mi SSE 11.5 mph 21.9 mph N/A   Partly Cloudy
5:53 PM 71.1 °F - 45.0 °F 39% 29.89 in 10.0 mi SSW 13.8 mph 18.4 mph N/A   Scattered Clouds
6:53 PM 69.1 °F - 46.0 °F 44% 29.90 in 10.0 mi South 9.2 mph - N/A   Mostly Cloudy
7:53 PM 66.9 °F - 48.0 °F 51% 29.88 in 10.0 mi South 4.6 mph - N/A   Clear
8:53 PM 64.9 °F - 46.9 °F 52% 29.86 in 10.0 mi South 6.9 mph - N/A   Clear
9:53 PM 60.1 °F - 48.0 °F 64% 29.87 in 10.0 mi SE 4.6 mph - N/A   Clear
10:53 PM 59.0 °F - 48.0 °F 67% 29.86 in 10.0 mi SSE 5.8 mph - N/A   Clear
11:53 PM 57.9 °F - 48.9 °F 72% 29.83 in 10.0 mi South 6.9 mph - N/A   Clear